Flag for U.S.A. Weather past 2 weeks in Simi Valley, California, U.S.A.

Now
55 °F

Clear.


Feels Like: 55 °F
Forecast: 54 / 77 °F
Wind: No wind

Location: Van Nuys Airport


UV Index: 5 (Moderate)

Visibility: 10 mi


Pressure: 29.95 "Hg

Humidity: 80%

Dew point: 49 °F

Location of Simi ValleyLocation

Historic Weather in Simi Valley

°F

Simi Valley temperature yesterday

Maximum temperature yesterday: 71 °F (at 12:51 PM)
Minimum temperature yesterday: 57 °F (at 6:51 AM)
Average temperature yesterday: 64 °F

Past Weeks' High & Low Weather Summary

 TemperatureHumidityPressure
High90 °F (Apr 9, 3:51 PM)88% (Apr 16, 2:03 AM)30.09 "Hg (Apr 16, 2:03 AM)
Low48 °F (Apr 5, 5:51 AM)5% (Apr 9, 12:51 PM)29.75 "Hg (Apr 16, 4:51 PM)
Average66 °F46%29.94 "Hg
* Reported Apr 4 6:51 AM — Apr 19 6:51 AM, Simi Valley, Weather by CustomWeather, © 2014

Note: Actual official high and low records may vary slightly from our data, if they occured in-between our weather recording intervals... More about our weather records

Advertising

Historic Weather Conditions — Data for Previous 24 hours

 ConditionsComfort  
Time TempWeatherWind HumidityBarometerVisibility
6:51 AM
Apr 19
55 °FClear.No wind80%29.95 "Hg10 mi
5:51 AM56 °FClear.No wind75%29.93 "Hg10 mi
4:51 AM56 °FClear.No wind77%29.93 "Hg10 mi
3:51 AM56 °FClear.3 mph75%29.92 "Hg10 mi
2:51 AM57 °FClear.No wind74%29.91 "Hg10 mi
1:51 AM59 °FClear.No wind69%29.92 "Hg10 mi
12:51 AM59 °FClear.No wind69%29.93 "Hg10 mi
11:51 PM
Apr 18
60 °FClear.No wind67%29.92 "Hg10 mi
10:51 PM61 °FClear.No wind65%29.91 "Hg10 mi
9:51 PM63 °FClear.No wind60%29.91 "Hg10 mi
8:51 PM64 °FClear.3 mph61%29.90 "Hg10 mi
7:51 PM66 °FSunny.3 mph56%29.87 "Hg10 mi
6:51 PM67 °FSunny.6 mph53%29.86 "Hg10 mi
5:51 PM68 °FSunny.9 mph53%29.84 "Hg10 mi
4:51 PM70 °FSunny.8 mph49%29.84 "Hg10 mi
3:51 PM71 °FSunny.8 mph47%29.84 "Hg10 mi
2:51 PM71 °FSunny.6 mph47%29.86 "Hg10 mi
1:51 PM71 °FSunny.8 mph47%29.87 "Hg10 mi
12:51 PM71 °FSunny.13 mph47%29.88 "Hg10 mi
11:51 AM68 °FPartly sunny.3 mph51%29.89 "Hg10 mi
10:51 AM66 °FPartly sunny.6 mph54%29.90 "Hg10 mi
9:51 AM65 °FBroken clouds.No wind61%29.90 "Hg10 mi
8:51 AM60 °FOvercast.No wind72%29.90 "Hg10 mi
Weather by CustomWeather, © 2014

See weather overview